sat.trackr.live / text

‹ back to catalog

STARLINK-5261

NORAD 55276 · 2023-010H

PAYLOAD ACTIVE UNKNOWN

§ Identity

Operator
Country
US
Launch date
2023-01-19
Launch site
AFWTR
Launch vehicle
Mass (kg)
RCS (m²)

Purposes: comms

External: N2YO · Heavens-Above · Gunter

§ Orbital elements

Epoch: 2026-09-20T16:15:00.518112Z

Period
96.11 min
Inclination
69.9982°
Eccentricity
0.0003657
Mean motion
14.98330442 rev/d
Perigee alt
569.5 km
Apogee alt
574.6 km
Semi-major
6,950.2 km
B*
9.3737e-5
RAAN
252.9328°
Arg perigee
267.8336°
Mean anomaly
92.2404°
Rev number
20,247

§ Raw data

STARLINK-52611 55276U 23010H   26263.67708933  .00001026  00000+0  93737-4 0  99942 55276  69.9982 252.9328 0003657 267.8336  92.2404 14.98330442202471

JSON: /api/v1/satellites/55276 · /tle

For live sub-satellite position, see the globe view (requires WebGL).

§ Visibility from observer

Set your observer location to see the next 7 days of passes ≥ 10°. The values pass through the URL so the page stays shareable.

No JS? Fill the form by hand. The geolocation button needs JavaScript.